TimeEDT,TemperatureF,Dew PointF,Humidity,Sea Level PressureIn,VisibilityMPH,Wind Direction,Wind SpeedMPH,Gust SpeedMPH,PrecipitationIn,Events,Conditions,WindDirDegrees,DateUTC
12:53 AM,61.0,57.9,90,30.06,10.0,West,5.8,-,N/A,,Clear,280,2012-11-01 04:53:00
1:53 AM,61.0,57.9,90,30.06,10.0,WNW,4.6,-,N/A,,Clear,290,2012-11-01 05:53:00
2:53 AM,59.0,57.0,93,30.05,10.0,Calm,Calm,-,N/A,,Clear,0,2012-11-01 06:53:00
3:53 AM,57.0,55.9,96,30.05,10.0,Calm,Calm,-,N/A,,Clear,0,2012-11-01 07:53:00
4:53 AM,57.0,57.0,100,30.05,10.0,Calm,Calm,-,N/A,,Clear,0,2012-11-01 08:53:00
5:53 AM,55.9,55.9,100,30.04,10.0,Calm,Calm,-,N/A,,Clear,0,2012-11-01 09:53:00
8:53 AM,63.0,62.1,97,30.08,10.0,SSW,4.6,-,N/A,,Clear,210,2012-11-01 12:53:00
9:53 AM,68.0,61.0,78,30.08,10.0,SSW,5.8,-,N/A,,Clear,210,2012-11-01 13:53:00
10:53 AM,71.1,61.0,70,30.09,10.0,WSW,9.2,-,N/A,,Clear,240,2012-11-01 14:53:00
11:53 AM,73.9,61.0,64,30.07,10.0,West,11.5,-,N/A,,Clear,270,2012-11-01 15:53:00
12:53 PM,77.0,57.9,52,30.05,10.0,West,15.0,-,N/A,,Partly Cloudy,260,2012-11-01 16:53:00
1:53 PM,75.9,59.0,56,30.02,10.0,WSW,11.5,-,N/A,,Scattered Clouds,250,2012-11-01 17:53:00
2:53 PM,77.0,57.0,50,29.99,10.0,West,12.7,20.7,N/A,,Partly Cloudy,280,2012-11-01 18:53:00
3:53 PM,79.0,57.0,47,29.98,10.0,West,11.5,-,N/A,,Clear,270,2012-11-01 19:53:00
4:53 PM,79.0,57.0,47,29.98,10.0,West,11.5,-,N/A,,Mostly Cloudy,260,2012-11-01 20:53:00
5:53 PM,77.0,57.0,50,29.98,10.0,West,8.1,-,N/A,,Scattered Clouds,280,2012-11-01 21:53:00
6:53 PM,73.9,59.0,59,29.99,10.0,WNW,4.6,-,N/A,,Partly Cloudy,290,2012-11-01 22:53:00
7:53 PM,73.0,60.1,64,30.01,10.0,West,3.5,-,N/A,,Clear,270,2012-11-01 23:53:00
8:53 PM,72.0,62.1,71,30.02,10.0,West,4.6,-,N/A,,Overcast,280,2012-11-02 00:53:00
9:53 PM,70.0,63.0,78,30.04,10.0,West,4.6,-,N/A,,Partly Cloudy,280,2012-11-02 01:53:00
10:53 PM,68.0,63.0,84,30.05,10.0,West,5.8,-,N/A,,Clear,280,2012-11-02 02:53:00
11:53 PM,68.0,64.0,87,30.05,10.0,WSW,4.6,-,N/A,,Scattered Clouds,240,2012-11-02 03:53:00